Tracking 35331 objects as of 14-Sep-2026
HD Live streaming from Space Station
objects crossing your sky now

ARIANE 3 DEB (SYLDA)


ARIANE 3 DEB (SYLDA) is no longer on orbit


NORAD ID: 15680
Int'l Code: 1985-035D
Launch date: May 8, 1985
Source: France (FR)
Launch site: FRENCH GUIANA (FRGUI)
Decay date: 2025-03-13

Note: This is SATELLITE DEBRIS
Your satellite tracking list
Your tracking list is empty




NASA's NSSDC Master Catalog

Two Line Element Set (TLE):
1 15680U 85035D   25023.46320862  .00623357  25535-4  10374-1 0  9990
2 15680   6.7630  59.5785 0896330  60.4240 308.2251 13.88485223786127
Source of the keplerian elements: AFSPC